Terminal Aerodrome Forecast
Issued by NWS Greer, SC

Home | Current Version | Previous Version | Text Only | Print | Product List | Glossary On
Versions: 1 2 3 4 5 6 7 8 9 10 11 12 13 14 15
000
FTUS42 KGSP 242321
TAFAVL
TAF
KAVL 242321Z 2500/2524 34006KT P6SM SCT250
     FM250900 34003KT 3SM BR SCT003
     FM251300 35004KT P6SM FEW040 BKN250
     FM252100 31006KT P6SM SCT250=

USA.gov is the U.S. government's official web portal to all federal, state and local government web resources and services.